Location: Dzierzno
(50.6159°N, 19.2852°E)
Time: 00:52:02
(UTC+00:00)

Cosmos 1725 Rocket - Pass Details

Date: 18 November 2025
Orbit: 962 x 989 km, 82.9° (Epoch: 05 December)

Event Time Altitude Azimuth Distance (km) Brightness Sun altitude
Rises 15:41:39 0° 193° (SSW) 3,670 7.5 -7.8°
Reaches altitude 10° 15:44:09 10° 194° (SSW) 2,730 6.9 -8.2°
Maximum altitude 15:50:25 77° 281° (W) 1,018 4.3 -9.1°
Drops below altitude 10° 15:56:46 10° 8° (N) 2,761 6.1 -10.1°
Sets 15:59:19 0° 10° (N) 3,715 6.8 -10.5°
